• In Belarus
  • List of Countries
  • For 7 days
  • Water Temperature
  • Satellite Maps
  • Weather Map
  • Weather Widgets
  • user-avatar
    Login

    Hourly Weather Pody

    Today, 19 April, Friday

    Time Temperature Precipitation Wind Pressure Humidity
    00:00 +6°C° 0 mm 2 mps 755 mmHg 56%
    01:00 +6°C° 0 mm 2 mps 755 mmHg 58%
    02:00 +5°C° 0 mm 2 mps 755 mmHg 60%
    03:00 +4°C° 0 mm 2 mps 755 mmHg 61%
    04:00 +4°C° 0 mm 2 mps 755 mmHg 62%
    05:00 +4°C° 0 mm 2 mps 755 mmHg 63%
    06:00 +4°C° 0 mm 3 mps 755 mmHg 58%
    07:00 +5°C° 0 mm 3 mps 755 mmHg 52%
    08:00 +7°C° 0 mm 4 mps 755 mmHg 44%
    09:00 +7°C° 0 mm 5 mps 755 mmHg 42%
    10:00 +8°C° 0 mm 5 mps 755 mmHg 40%
    11:00 +9°C° 0 mm 5 mps 755 mmHg 38%
    12:00 +9°C° 0 mm 5 mps 755 mmHg 37%
    13:00 +9°C° 0 mm 5 mps 755 mmHg 36%
    14:00 +10°C° 0 mm 6 mps 755 mmHg 36%
    15:00 +9°C° 0 mm 5 mps 755 mmHg 37%
    16:00 +9°C° 0 mm 5 mps 755 mmHg 38%
    17:00 +9°C° 0 mm 5 mps 755 mmHg 39%
    18:00 +8°C° 0 mm 4 mps 755 mmHg 44%
    19:00 +7°C° 0 mm 4 mps 755 mmHg 48%
    20:00 +7°C° 0 mm 3 mps 756 mmHg 52%
    21:00 +7°C° 0 mm 3 mps 756 mmHg 54%
    22:00 +5°C° 0 mm 3 mps 756 mmHg 55%
    23:00 +5°C° 0 mm 3 mps 756 mmHg 56%

    Tomorrow, 20 April, Saturday

    Time Temperature Precipitation Wind Pressure Humidity
    00:00 +5°C° 0 mm 3 mps 756 mmHg 58%
    01:00 +4°C° 0 mm 3 mps 756 mmHg 59%
    02:00 +4°C° 0 mm 3 mps 756 mmHg 60%
    03:00 +3°C° 0 mm 3 mps 756 mmHg 61%
    04:00 +3°C° 0 mm 3 mps 756 mmHg 62%
    05:00 +2°C° 0 mm 3 mps 756 mmHg 63%
    06:00 +4°C° 0 mm 3 mps 756 mmHg 57%
    07:00 +7°C° 0 mm 3 mps 756 mmHg 51%
    08:00 +7°C° 0 mm 4 mps 756 mmHg 44%
    09:00 +8°C° 0 mm 4 mps 756 mmHg 41%
    10:00 +10°C° 0 mm 4 mps 756 mmHg 38%
    11:00 +11°C° 0 mm 4 mps 756 mmHg 35%
    12:00 +12°C° 0 mm 4 mps 756 mmHg 34%
    13:00 +12°C° 0 mm 4 mps 756 mmHg 33%
    14:00 +13°C° 0 mm 4 mps 755 mmHg 32%
    15:00 +12°C° 0 mm 3 mps 755 mmHg 34%
    16:00 +12°C° 0 mm 3 mps 755 mmHg 35%
    17:00 +12°C° 0 mm 3 mps 755 mmHg 37%
    18:00 +12°C° 0 mm 2 mps 755 mmHg 39%
    19:00 +10°C° 0 mm 2 mps 755 mmHg 42%
    20:00 +10°C° 0 mm 1 mps 756 mmHg 45%
    21:00 +9°C° 0 mm 1 mps 756 mmHg 47%
    22:00 +9°C° 0 mm 1 mps 756 mmHg 49%
    23:00 +8°C° 0 mm 1 mps 756 mmHg 51%

    Day after tomorrow, 21 April, Sunday

    Time Temperature Precipitation Wind Pressure Humidity
    00:00 +7°C° 0 mm 2 mps 756 mmHg 53%
    01:00 +6°C° 0 mm 2 mps 755 mmHg 54%
    02:00 +6°C° 0 mm 2 mps 755 mmHg 56%
    03:00 +5°C° 0 mm 2 mps 755 mmHg 57%
    04:00 +5°C° 0 mm 2 mps 755 mmHg 58%
    05:00 +5°C° 0 mm 2 mps 755 mmHg 59%
    06:00 +7°C° 0 mm 2 mps 756 mmHg 54%
    07:00 +8°C° 0 mm 3 mps 756 mmHg 49%
    08:00 +10°C° 0 mm 3 mps 756 mmHg 43%
    09:00 +11°C° 0 mm 3 mps 756 mmHg 41%
    10:00 +12°C° 0 mm 4 mps 756 mmHg 38%
    11:00 +13°C° 0 mm 4 mps 756 mmHg 36%
    12:00 +13°C° 0 mm 4 mps 756 mmHg 36%
    13:00 +13°C° 0 mm 4 mps 756 mmHg 36%
    14:00 +13°C° 0 mm 4 mps 756 mmHg 37%
    15:00 +13°C° 0 mm 4 mps 756 mmHg 38%
    16:00 +12°C° 0 mm 4 mps 756 mmHg 39%
    17:00 +12°C° 0 mm 4 mps 756 mmHg 40%
    18:00 +12°C° 0 mm 3 mps 756 mmHg 43%
    19:00 +11°C° 0 mm 3 mps 756 mmHg 47%
    20:00 +10°C° 0 mm 3 mps 757 mmHg 51%
    21:00 +10°C° 0 mm 3 mps 757 mmHg 52%
    22:00 +9°C° 0 mm 3 mps 757 mmHg 53%
    23:00 +9°C° 0 mm 3 mps 757 mmHg 54%

    22 April, Monday

    Time Temperature Precipitation Wind Pressure Humidity
    00:00 +9°C° 0 mm 3 mps 757 mmHg 55%
    01:00 +8°C° 0 mm 3 mps 757 mmHg 57%
    02:00 +8°C° 0 mm 3 mps 757 mmHg 58%
    03:00 +7°C° 0 mm 3 mps 757 mmHg 60%
    04:00 +7°C° 0 mm 3 mps 758 mmHg 61%
    05:00 +6°C° 0 mm 2 mps 758 mmHg 62%
    06:00 +8°C° 0 mm 3 mps 758 mmHg 55%
    07:00 +10°C° 0 mm 3 mps 758 mmHg 48%
    08:00 +11°C° 0 mm 4 mps 759 mmHg 41%
    09:00 +12°C° 0 mm 4 mps 758 mmHg 39%
    10:00 +13°C° 0 mm 4 mps 758 mmHg 38%
    11:00 +13°C° 0 mm 4 mps 758 mmHg 36%
    12:00 +13°C° 0 mm 4 mps 758 mmHg 37%
    13:00 +13°C° 0 mm 4 mps 758 mmHg 38%
    14:00 +13°C° 0 mm 4 mps 758 mmHg 38%
    15:00 +13°C° 0 mm 4 mps 758 mmHg 40%
    16:00 +13°C° 0 mm 4 mps 758 mmHg 41%
    17:00 +13°C° 0 mm 3 mps 758 mmHg 42%
    18:00 +11°C° 0 mm 3 mps 758 mmHg 47%
    19:00 +10°C° 0 mm 3 mps 758 mmHg 52%
    20:00 +9°C° 0 mm 2 mps 758 mmHg 57%
    21:00 +9°C° 0 mm 2 mps 759 mmHg 58%
    22:00 +8°C° 0 mm 2 mps 759 mmHg 59%
    23:00 +8°C° 0 mm 2 mps 759 mmHg 60%

    23 April, Tuesday

    Time Temperature Precipitation Wind Pressure Humidity
    00:00 +8°C° 0 mm 2 mps 759 mmHg 59%
    01:00 +8°C° 0 mm 2 mps 759 mmHg 59%
    02:00 +8°C° 0 mm 2 mps 759 mmHg 59%
    03:00 +8°C° 0 mm 2 mps 759 mmHg 61%
    04:00 +8°C° 0 mm 2 mps 759 mmHg 62%
    05:00 +8°C° 0 mm 2 mps 760 mmHg 64%
    06:00 +9°C° 0 mm 2 mps 760 mmHg 60%
    07:00 +12°C° 0 mm 2 mps 760 mmHg 56%
    08:00 +12°C° 0 mm 3 mps 760 mmHg 52%
    09:00 +13°C° 0 mm 3 mps 760 mmHg 49%
    10:00 +13°C° 0 mm 3 mps 760 mmHg 45%
    11:00 +14°C° 0 mm 3 mps 760 mmHg 42%
    12:00 +14°C° 0 mm 3 mps 760 mmHg 43%
    13:00 +15°C° 0 mm 2 mps 760 mmHg 43%
    14:00 +15°C° 0 mm 2 mps 760 mmHg 44%
    15:00 +15°C° 0 mm 2 mps 760 mmHg 46%
    16:00 +15°C° 0 mm 2 mps 760 mmHg 48%
    17:00 +14°C° 0 mm 2 mps 759 mmHg 51%
    18:00 +13°C° 0 mm 2 mps 760 mmHg 54%
    19:00 +13°C° 0 mm 2 mps 760 mmHg 56%
    20:00 +12°C° 0 mm 1 mps 760 mmHg 59%
    21:00 +12°C° 0 mm 1 mps 760 mmHg 59%
    22:00 +11°C° 0 mm 1 mps 760 mmHg 59%
    23:00 +11°C° 0 mm 1 mps 760 mmHg 59%

    24 April, Wednesday

    Time Temperature Precipitation Wind Pressure Humidity
    00:00 +11°C° 0 mm 1 mps 760 mmHg 59%
    01:00 +11°C° 0 mm 1 mps 760 mmHg 59%
    02:00 +11°C° 0 mm 1 mps 760 mmHg 59%
    03:00 +11°C° 0 mm 1 mps 761 mmHg 60%
    04:00 +11°C° 0 mm 1 mps 761 mmHg 61%
    05:00 +11°C° 0 mm 1 mps 761 mmHg 63%
    06:00 +12°C° 0 mm 2 mps 761 mmHg 58%
    07:00 +13°C° 0 mm 2 mps 761 mmHg 54%
    08:00 +15°C° 0 mm 2 mps 761 mmHg 49%
    09:00 +15°C° 0 mm 2 mps 761 mmHg 46%
    10:00 +15°C° 0 mm 2 mps 761 mmHg 44%
    11:00 +16°C° 0 mm 2 mps 761 mmHg 41%
    12:00 +16°C° 0 mm 2 mps 760 mmHg 41%
    13:00 +16°C° 0 mm 2 mps 760 mmHg 41%
    14:00 +16°C° 0 mm 1 mps 760 mmHg 41%
    15:00 +16°C° 0 mm 1 mps 760 mmHg 43%
    16:00 +16°C° 0 mm 1 mps 760 mmHg 44%
    17:00 +16°C° 0 mm 1 mps 760 mmHg 46%
    18:00 +15°C° 0 mm 1 mps 760 mmHg 48%
    19:00 +14°C° 0 mm 1 mps 760 mmHg 50%
    20:00 +12°C° 0 mm 0 mps 760 mmHg 52%
    21:00 +13°C° 0 mm 1 mps 760 mmHg 54%
    22:00 +12°C° 0 mm 1 mps 760 mmHg 55%
    23:00 +10°C° 0 mm 2 mps 760 mmHg 57%
    Show more